This is the latest recevied weather packets stored in our database for station/object KE5WTH-14. If no packets are shown the sender has not sent any weather packets the latest 1 day(s).
| Time | Temp. | Humidity | Pressure | Rain* | Wind** | Luminosity | Snow |
|---|---|---|---|---|---|---|---|
| 1778043788 | 15.56° C | 79% | 1009.9 hPa | 0 mm | 3.13 m/s, 49° | 0 W/m² | - |
| 1778043726 | 15.56° C | 79% | 1010 hPa | 0 mm | 2.68 m/s, 0° | 0 W/m² | - |
| 1778043667 | 15.56° C | 79% | 1010 hPa | 0 mm | 3.13 m/s, 333° | 0 W/m² | - |
| 1778043607 | 15.56° C | 79% | 1009.9 hPa | 0 mm | 4.02 m/s, 350° | 0 W/m² | - |
| 1778043551 | 15.56° C | 79% | 1009.9 hPa | 0 mm | 3.58 m/s, 0° | 0 W/m² | - |
| 1778043485 | 15.56° C | 80% | 1009.9 hPa | 0 mm | 3.58 m/s, 355° | 0 W/m² | - |
| 1778043427 | 15.56° C | 80% | 1009.9 hPa | 0 mm | 3.58 m/s, 10° | 0 W/m² | - |
| 1778043365 | 15.56° C | 80% | 1009.9 hPa | 0 mm | 2.68 m/s, 0° | 0 W/m² | - |
| 1778043306 | 15.56° C | 79% | 1009.9 hPa | 0 mm | 2.68 m/s, 0° | 0 W/m² | - |
| 1778043246 | 15.56° C | 79% | 1010 hPa | 0 mm | 4.02 m/s, 10° | 0 W/m² | - |
| 1778043180 | 15.56° C | 79% | 1009.9 hPa | 0 mm | 4.02 m/s, 0° | 0 W/m² | - |
| 1778043120 | 15.56° C | 79% | 1010 hPa | 0 mm | 4.02 m/s, 0° | 0 W/m² | - |
| 1778043061 | 15.56° C | 79% | 1010 hPa | 0 mm | 4.02 m/s, 0° | 0 W/m² | - |
| 1778043000 | 15.56° C | 79% | 1010 hPa | 0 mm | 3.58 m/s, 1° | 0 W/m² | - |
| 1778042938 | 15.56° C | 79% | 1010 hPa | 0 mm | 3.13 m/s, 334° | 0 W/m² | - |
| 1778042876 | 15.56° C | 79% | 1010.1 hPa | 0 mm | 3.58 m/s, 338° | 0 W/m² | - |
| 1778042814 | 15.56° C | 79% | 1010.1 hPa | 0 mm | 3.58 m/s, 16° | 0 W/m² | - |
| 1778042753 | 15.56° C | 79% | 1010 hPa | 0 mm | 4.02 m/s, 0° | 0 W/m² | - |
| 1778042690 | 15.56° C | 79% | 1010 hPa | 0 mm | 4.47 m/s, 0° | 0 W/m² | - |
| 1778042631 | 15.56° C | 79% | 1010 hPa | 0 mm | 4.47 m/s, 21° | 0 W/m² | - |
| 1778042566 | 15.56° C | 79% | 1009.9 hPa | 0 mm | 3.58 m/s, 8° | 0 W/m² | - |
| 1778042505 | 15.56° C | 79% | 1010 hPa | 0 mm | 3.13 m/s, 0° | 0 W/m² | - |
| 1778042444 | 15.56° C | 79% | 1010.1 hPa | 0 mm | 2.68 m/s, 0° | 0 W/m² | - |
| 1778042382 | 15.56° C | 79% | 1010.1 hPa | 0 mm | 3.13 m/s, 0° | 0 W/m² | - |
| 1778042316 | 15.56° C | 80% | 1010 hPa | 0 mm | 3.58 m/s, 0° | 0 W/m² | - |
* Rain latest hour (hover to see other rain measurements)
** Current wind speed in m/s (hover to see current wind gust speed)